Lid_Strength_Index
4 4 4 4 3 2 2 2 2 2 2 2 3 4 4 5 4 3 2 2 2 1 1 2 2 2 2 3 3 2 2 2 3 3 3 2 1 2 2 2 2 1 1
6 5 5 3 3 3 3 3 2 2 2 2 3 4 4 5 4 3 2 1 1 1 1 2 2 3 3 3 3 3 4 3 3 4 4 6 4 2 2 2 2 2 2
6 6 5 4 3 3 3 3 2 3 3 3 3 4 4 4 5 5 4 2 1 1 2 2 2 3 2 3 3 3 4 4 4 3 5 7 7 4 3 2 2 2 2
6 6 6 5 4 3 3 3 3 3 3 3 4 4 5 5 5 4 3 2 2 2 1 2 2 2 2 3 3 2 3 3 4 3 2 3 4 6 6 4 3 2 2
7 7 6 4 4 3 3 3 4 4 4 4 4 5 6 4 3 3 3 3 2 2 1 1 2 2 3 3 3 3 3 3 4 4 4 4 4 3 5 6 5 3 3
7 5 4 4 4 3 3 3 4 4 4 4 4 4 3 4 3 3 4 4 3 3 2 1 2 2 3 2 2 2 3 3 3 3 3 4 5 5 5 6 6 5 4
6 6 5 5 4 4 3 4 4 4 4 4 3 3 4 3 3 4 4 3 3 3 3 3 3 2 2 2 2 3 3 3 3 3 3 3 3 3 4 4 5 5 4
6 6 5 5 4 4 4 4 4 4 3 3 3 3 3 3 3 4 3 3 3 3 3 3 2 2 2 2 2 2 2 2 2 3 3 3 3 2 2 4 4 6 5
6 6 5 5 4 4 4 4 4 4 3 3 3 3 3 3 4 3 3 3 3 3 2 2 2 2 2 2 2 2 2 2 3 2 3 3 2 1 2 3 3 4 6
6 6 5 5 4 4 3 4 3 3 3 3 3 3 3 3 2 3 3 3 3 2 2 2 2 2 2 2 2 2 1 2 2 2 3 2 2 2 2 3 3 2 4
6 6 5 4 4 3 3 3 3 3 3 3 3 3 3 2 3 3 3 2 2 2 2 2 2 2 2 2 3 3 2 3 2 1 2 2 2 2 3 3 3 3 2
6 5 5 4 4 4 4 4 3 3 3 3 2 3 2 3 3 2 2 3 3 2 2 2 2 1 2 2 2 2 1 2 2 2 2 2 1 2 2 3 3 4 3
6 5 5 5 4 4 4 3 3 3 3 2 3 2 2 3 3 3 2 3 2 2 2 2 2 1 2 2 2 2 2 1 1 2 2 2 2 2 2 2 2 2 2
6 6 5 5 4 4 4 3 4 3 3 2 2 2 3 3 3 3 2 2 2 2 1 2 1 2 2 2 2 2 2 1 1 1 1 1 2 2 2 2 2 2 2
6 6 5 5 4 4 4 4 3 3 2 2 2 3 3 3 2 2 2 2 1 1 1 2 2 2 2 2 2 2 2 2 2 2 1 1 2 2 2 1 2 2 2
6 5 5 5 4 4 4 4 3 4 2 2 3 2 2 2 2 2 2 1 1 1 2 2 2 3 3 8 8 5 2 2 2 3 2 2 3 4 4 4 4 3 2
6 5 5 4 4 4 4 4 4 2 3 3 2 2 2 2 2 2 2 2 2 2 3 3 3 4 4 10 10 8 2 3 3 3 2 2 3 3 3 7 6 6 6
5 5 4 4 4 4 4 4 3 3 3 3 2 2 2 2 2 2 3 3 3 3 3 4 4 4 5 11 10 7 2 2 2 3 2 2 3 3 3 3 3 3 3
4 4 3 4 4 4 4 3 3 3 3 3 3 2 2 2 2 2 3 3 3 4 4 4 4 5 6 11 10 5 2 2 2 2 1 2 3 8 8 3 4 4 5
4 4 4 4 5 5 3 4 4 3 3 3 2 2 2 2 3 3 3 3 3 2 2 4 3 5 5 11 10 5 2 2 2 3 3 7 5 10 8 3 4 4 5
4 3 4 5 5 4 3 4 4 4 3 2 2 2 2 2 2 3 3 3 3 3 3 3 3 4 5 7 10 8 2 2 3 3 4 5 10 10 10 7 3 4 4
4 4 5 5 5 4 3 4 4 3 3 2 2 3 2 2 2 3 3 3 3 3 3 4 4 3 4 9 10 8 7 5 2 3 4 7 11 11 10 7 10 9 6
4 4 5 5 5 4 3 4 4 4 2 3 3 2 2 2 2 3 3 3 4 4 4 3 3 4 4 5 10 9 9 7 3 3 6 11 12 11 10 10 9 7 3
4 4 5 5 5 4 3 3 4 3 2 3 3 2 2 3 3 2 3 3 3 3 3 3 3 3 4 4 4 4 6 8 7 8 7 8 8 8 6 6 5 2 2
4 4 4 5 5 5 3 3 3 2 3 3 3 3 2 2 3 4 4 2 3 3 3 3 2 3 3 4 5 5 4 4 6 6 4 4 4 4 4 3 2 2 2
4 4 4 4 4 5 3 2 3 2 2 3 3 3 3 3 3 5 7 12 11 12 11 7 4 2 6 10 11 10 9 11 10 4 4 4 3 3 3 2 2 2 3